Weather History for KSYR - October, 2013

Change the Weather History Date:

Friday, October 11, 2013

  Actual Average Record
Temperature  
Mean Temperature 56 °F 52 °F  
Max Temperature 68 °F 62 °F 86 °F (1949)
Min Temperature 44 °F 43 °F 28 °F (1943)
Degree Days  
Heating Degree Days 9 13  
Month to date heating degree days 58 125  
Since 1 July heating degree days 236 292  
Cooling Degree Days 0 0  
Month to date cooling degree days 1 0  
Year to date cooling degree days 712 565  
Growing Degree Days 7 (Base 50)    
Moisture  
Dew Point 46 °F    
Average Humidity 73    
Maximum Humidity 100    
Minimum Humidity 45    
Precipitation  
Precipitation 0.00 in 0.11 in 1.23 in (1990)
Month to date precipitation 1.94 1.26  
Year to date precipitation 31.72 29.54  
Snow  
Snow 0.00 in 0.00 in T in (1987)
Month to date snowfall 0.0 0.0  
Since 1 July snowfall 0.0 0.0  
Since 1 September snowfall 0.0 0.0  
Snow Depth 0.00 in    
Sea Level Pressure  
Sea Level Pressure 30.13 in    
Wind  
Wind Speed 1 mph (NE)    
Max Wind Speed 6 mph    
Max Gust Speed 8 mph    
Visibility 10 miles    
Events      
T = Trace of Precipitation, MM = Missing Value Source: NWS Daily Summary

Daily Weather History Graph

Daily Weather History Graph

Search for Another Location

Airport or City:

Trip Planner

Search our weather history database for the weather conditions in past years. The results will help you decide how hot, cold, wet, or windy it might be!

Date:

Astronomy

Oct. 11, 2013 Rise Set
Actual Time 7:13 AM EDT 6:27 PM EDT
Civil Twilight 6:45 AM EDT 6:56 PM EDT
Nautical Twilight 6:12 AM EDT 7:29 PM EDT
Astronomical Twilight 5:39 AM EDT 8:02 PM EDT
Moon 1:58 PM EDT (10/11) No Moon Set
Length of Visible Light 12h 11m
Length of Day
11h 14m
Waxing Crescent, 47% of the Moon is Illuminated
Oct 11
Waxing Crescent
Oct 11
First Quarter
Oct 18
Full
Oct 26
Last Quarter
Nov 3
New

Hourly Weather History & Observations

Time (EDT) Temp. Windchill Dew Point Humidity Pressure Visibility Wind Dir Wind Speed Gust Speed Precip Events Conditions
12:54 AM 48.0 °F - 45.0 °F 89% 30.15 in 10.0 mi Calm Calm - N/A   Mostly Cloudy
1:54 AM 48.9 °F - 45.0 °F 86% 30.13 in 10.0 mi Calm Calm - N/A   Overcast
2:54 AM 48.9 °F - 45.0 °F 86% 30.12 in 10.0 mi East 3.5 mph - N/A   Overcast
3:54 AM 50.0 °F - 43.0 °F 77% 30.13 in 10.0 mi Calm Calm - N/A   Overcast
4:54 AM 50.0 °F - 44.1 °F 80% 30.13 in 10.0 mi Calm Calm - N/A   Overcast
5:54 AM 50.0 °F - 45.0 °F 83% 30.15 in 10.0 mi Calm Calm - N/A   Overcast
6:54 AM 48.0 °F - 45.0 °F 89% 30.15 in 10.0 mi Calm Calm - N/A   Overcast
7:54 AM 50.0 °F - 46.0 °F 86% 30.15 in 10.0 mi Calm Calm - N/A   Mostly Cloudy
8:54 AM 52.0 °F - 48.0 °F 86% 30.15 in 10.0 mi Calm Calm - N/A   Overcast
9:54 AM 54.0 °F - 48.0 °F 80% 30.15 in 10.0 mi Calm Calm - N/A   Mostly Cloudy
10:54 AM 57.0 °F - 48.0 °F 72% 30.15 in 10.0 mi Calm Calm - N/A   Mostly Cloudy
11:54 AM 59.0 °F - 48.0 °F 67% 30.15 in 10.0 mi Calm Calm - N/A   Overcast
12:54 PM 61.0 °F - 48.9 °F 64% 30.14 in 10.0 mi Calm Calm - N/A   Mostly Cloudy
1:54 PM 63.0 °F - 48.9 °F 60% 30.12 in 10.0 mi Calm Calm - N/A   Mostly Cloudy
2:54 PM 64.9 °F - 46.9 °F 52% 30.12 in 10.0 mi North 5.8 mph - N/A   Mostly Cloudy
3:54 PM 66.9 °F - 45.0 °F 45% 30.11 in 10.0 mi Calm Calm - N/A   Mostly Cloudy
4:54 PM 66.0 °F - 45.0 °F 47% 30.10 in 10.0 mi Calm Calm - N/A   Mostly Cloudy
5:54 PM 62.1 °F - 46.9 °F 58% 30.11 in 10.0 mi Calm Calm - N/A   Scattered Clouds
6:54 PM 55.0 °F - 46.0 °F 72% 30.12 in 10.0 mi Calm Calm - N/A   Scattered Clouds
7:54 PM 52.0 °F - 46.9 °F 83% 30.13 in 10.0 mi Calm Calm - N/A   Scattered Clouds
8:54 PM 52.0 °F - 48.0 °F 86% 30.13 in 10.0 mi Calm Calm - N/A   Partly Cloudy
9:54 PM 50.0 °F - 46.9 °F 89% 30.14 in 10.0 mi Calm Calm - N/A   Partly Cloudy
10:54 PM 46.9 °F - 46.0 °F 97% 30.14 in 10.0 mi Calm Calm - N/A   Clear
11:54 PM 46.0 °F 44.8 °F 44.1 °F 93% 30.13 in 10.0 mi ENE 3.5 mph - N/A   Clear